Terminal Aerodrome Forecast
Issued by NWS

Home | Current Version | Previous Version | Text Only | Print | Product List | Glossary On
Versions: 1 2 3 4 5 6 7 8 9 10 11 12
551
FTUS45 KRIW 061726
TAFBPI
TAF
KBPI 061726Z 0618/0718 31012G18KT P6SM SCT070 BKN200
      TEMPO 0618/0620 VRB06KT
     FM070200 32014G22KT P6SM SCT050 BKN080
     FM070900 34009KT P6SM SCT080=

USA.gov is the U.S. government's official web portal to all federal, state and local government web resources and services.